Regional Weather Roundup
Issued by NWS

Home | Current Version | Previous Version | Graphics & Text | Print | Product List | Glossary On
Versions: 1 2 3 4 5 6 7 8 9 10 11 12 13 14 15 16 17 18 19 20 21 22 23 24 25 26 27 28 29 30 31 32 33 34 35 36 37 38 39 40 41 42 43 44 45 46 47 48 49 50
000
ASUS43 KDTX 140210
RWRMI
MICHIGAN HOURLY REGIONAL WEATHER ROUNDUP
NATIONAL WEATHER SERVICE DETROIT/PONTIAC MI
1000 PM EDT SUN JUL 13 2014

NOTE: "FAIR" INDICATES FEW OR NO CLOUDS BELOW 12,000 FEET WITH NO
SIGNIFICANT WEATHER AND/OR OBSTRUCTION TO VISIBILITY.

MIZ047>049-052>055-059>063-066>070-074>076-081>083-140300-
SOUTHEAST LOWER MICHIGAN

CITY           SKY/WX    TMP DP  RH WIND       PRES   REMARKS
ADRIAN         CLEAR     71  62  73 NW3       29.92R
ALMA           CLOUDY    70  63  77 SW3       29.89R
ANN ARBOR      CLEAR     65  59  81 W3        29.90S
BAD AXE        MOCLDY    62  55  78 E6        29.90R
DETROIT CITY   CLEAR     80  55  42 W7        29.89R
DETROIT        PTCLDY    75  57  53 W3        29.90R
FLINT          PTCLDY    72  61  68 SW6       29.89S
GROSSE ILE     CLEAR     75  61  60 CALM      29.88R
HILLSDALE      CLEAR     66  63  90 CALM      29.93S
HOWELL         CLEAR     70  59  68 CALM      29.90S

CITY           SKY/WX    TMP DP  RH WIND       PRES   REMARKS
JACKSON        CLEAR     67  61  81 SW3       29.91S
LAMBERTVILLE   CLEAR     72  63  73 CALM      29.91S
LANSING        CLEAR     71  61  70 CALM      29.90R
LAPEER         NOT AVBL
MASON          CLEAR     67  62  82 CALM      29.90S
MONROE         CLEAR     70  64  83 CALM      29.88S
MT. CLEMENS    CLEAR     75  57  53 W5        29.87S
PONTIAC        PTCLDY    73  58  59 W3        29.90R
PORT HOPE        N/A     65  55  70 NE14      29.88R
PORT HURON     CLEAR     66  63  88 CALM      29.88R
TRI CITIES     PTCLDY    71  64  78 SW5       29.88R
YPSILANTI      CLEAR     75  59  57 CALM      29.90S
$$
MIZ043>046-050>051-056>058-064>065-071>073-077>080-140300-
SOUTHWEST LOWER MICHIGAN

CITY           SKY/WX    TMP DP  RH WIND       PRES   REMARKS
BATTLE CREEK   CLEAR     72  61  68 S6        29.90S
BENTON HARBOR  CLOUDY    72  62  71 N10G17    29.88R
BIG RAPIDS     CLOUDY    70  64  80 W6        29.88S
COLDWATER      CLEAR     68  65  89 CALM      29.91S
HOLLAND        MOCLDY    71  63  75 NW5       29.88S
GRAND RAPIDS   PTCLDY    74  61  63 NW3       29.89S
KALAMAZOO      CLEAR     73  61  65 S5        29.89S
MARSHALL       CLEAR     68  62  79 CALM      29.90S
MUSKEGON       MOCLDY    68  62  81 CALM      29.88S
$$
MIZ016>042-140300-
NORTHERN LOWER MICHIGAN

CITY           SKY/WX    TMP DP  RH WIND       PRES   REMARKS
ALPENA         CLEAR     59  50  72 CALM      29.88R
BEAVER ISLAND  CLEAR     58  55  91 CALM      29.86S
BELLAIRE       CLEAR     57  54  88 CALM      29.86S
CADILLAC       CLEAR     60  55  83 CALM      29.89S
CHARLEVOIX     CLEAR     60  53  78 S3        29.89S HAZE
FRANKFORT      CLEAR     60  56  88 CALM      29.86S
GAYLORD        CLEAR     59  52  77 CALM      29.88S
GRAYLING       CLEAR     55  52  89 CALM      29.90R
HARBOR SPRINGS CLEAR     59  55  87 CALM      29.85S
HOUGHTON LAKE  CLEAR     58  54  86 CALM      29.89S
MANISTEE       CLEAR     63  57  82 CALM      29.88S
OSCODA         CLEAR     63  55  76 CALM      29.88R
PELLSTON       CLEAR     54  51  90 CALM      29.86S
TRAVERSE CITY  CLEAR     62  52  69 S3        29.85S
$$
MIZ007>008-015-140300-
EASTERN UPPER MICHIGAN

CITY           SKY/WX    TMP DP  RH WIND       PRES   REMARKS
KINROSS        CLEAR     57  48  72 CALM      29.86R
MACKINAC ISLAN CLEAR     61  51  69 CALM      29.85S
NEWBERRY       CLEAR     54  49  82 CALM      29.85R
S. S. MARIE    CLEAR     56  47  71 S3        29.85R
$$
MIZ004>006-011>014-085-140300-
CENTRAL UPPER MICHIGAN

CITY           SKY/WX    TMP DP  RH WIND       PRES   REMARKS
MANISTIQUE     PTCLDY    56  51  83 CALM      29.84S
ESCANABA       CLOUDY    61  54  77 CALM      29.83S
MENOMINEE      CLEAR     66  46  48 CALM      29.84S
SAWYER-GWINN   PTCLDY    63  50  63 CALM      29.85S
$$
MIZ001>003-009>011-084-140300-
WESTERN UPPER MICHIGAN

CITY           SKY/WX    TMP DP  RH WIND       PRES   REMARKS
IRON MOUNTAIN  CLOUDY    66  48  52 W3        29.83F
HOUGHTON       CLOUDY    61  47  59 W13       29.81S
COPPER HARBOR    N/A     61  47  59 N13G20    29.80R
IRONWOOD       CLOUDY    63  48  59 SW3       29.82S
$$

ABBREVIATIONS USED IN REMARKS
   TC - TEMPERATURE IN CELSIUS
  WCI - WIND CHILL INDEX
   HX - HEAT INDEX
  VSB - VISIBILITY



USA.gov is the U.S. government's official web portal to all federal, state and local government web resources and services.